Location: Redwood Loop Observatory
(43.9900°N, 124.0900°W)
Time: 12:36:40
(UTC-08:00)

TIGRISAT - Visible Passes

Search period start: 05 December 2019 00:00
Search period end: 15 December 2019 00:00
Orbit: 606 x 688 km, 97.7° (Epoch: 05 December)

Date Brightness Start Highest point End Pass type
(mag) Time Alt. Az. Time Alt. Az. Time Alt. Az.
07 Dec ? 06:46:41 10° E 06:49:33 16° ENE 06:52:24 10° NNE visible
10 Dec ? 06:29:00 10° ENE 06:30:14 11° ENE 06:31:28 10° NE visible
11 Dec ? 06:52:22 10° ESE 06:55:35 19° ENE 06:58:48 10° NNE visible
14 Dec ? 06:34:14 10° E 06:36:15 13° ENE 06:38:17 10° NE visible
